Dewpoint
53 54 54 54 54 54 54 54 55 55 56 56 56 56 56 56 56 56 56 57 57 58 58 58 59 59 60 60 60 60 59 50 42 35 24 33 56 65 66 66 64 62 60 35 32 27 23 25 24 28 32 30 36 35 39 40 36 37 22 15 13 14 14 19 23 23 22 20 21 23 23 23 22 23 24 23 21 21 21 21 22 22 26 30 33 36 36 37
54 53 53 53 54 55 54 54 54 55 55 55 56 56 56 56 56 57 57 57 57 57 58 58 58 59 60 60 60 59 58 47 34 31 31 50 64 67 67 66 65 60 55 30 25 24 20 22 27 28 26 23 38 30 38 37 37 25 23 19 13 18 17 18 21 22 20 21 22 23 23 23 23 23 23 20 19 21 19 19 20 20 24 31 33 35 36 36
52 54 53 53 54 54 54 53 55 54 55 55 55 56 55 55 56 56 57 57 57 58 58 58 59 59 60 60 59 59 53 41 29 29 36 57 66 67 67 66 62 61 38 29 29 24 23 25 29 24 27 21 31 29 35 31 35 30 29 16 19 22 18 22 24 24 24 23 23 24 23 23 23 23 23 20 19 19 18 18 19 19 22 31 33 34 36 36
53 53 52 53 53 53 53 54 54 54 55 55 55 55 55 56 56 56 57 57 57 57 58 58 58 59 59 60 60 58 50 35 22 27 35 59 66 67 66 62 59 46 31 30 29 31 30 29 28 26 26 23 28 33 23 31 30 33 24 17 22 22 19 20 23 23 24 24 25 24 23 23 24 23 22 20 19 18 19 22 21 22 29 32 33 34 36 35
53 52 52 52 53 52 53 53 54 54 55 55 55 55 56 56 56 56 57 57 57 57 58 58 59 59 59 60 59 53 40 16 24 27 43 63 67 67 63 59 54 38 32 30 29 29 28 27 27 29 27 16 27 25 23 32 31 30 22 24 25 26 23 24 25 27 26 25 25 24 22 22 22 21 21 20 18 18 21 26 31 33 33 33 33 34 35 35
53 52 52 52 52 53 53 53 54 54 55 55 55 56 56 56 56 56 57 57 57 57 58 58 59 59 59 59 55 48 29 5 26 35 62 65 66 64 62 58 53 32 31 30 29 29 27 26 24 23 18 15 19 14 19 30 30 21 26 27 28 28 24 27 27 27 25 24 24 23 23 21 21 20 21 21 20 27 33 33 33 33 33 33 33 34 34 35
54 53 52 53 53 53 53 53 53 54 55 55 55 55 56 56 56 56 57 57 58 57 57 58 58 59 59 57 50 40 29 23 37 43 61 63 65 61 58 52 51 33 30 30 29 28 28 25 22 24 21 22 22 21 26 29 31 21 17 26 26 29 26 28 27 28 25 25 23 23 21 21 20 19 20 19 25 32 33 33 33 33 33 33 32 33 34 34
54 54 53 53 53 53 53 53 53 53 55 55 55 55 56 56 56 56 57 57 57 57 58 58 58 59 57 49 42 36 33 26 37 48 58 58 56 53 50 42 39 40 31 29 28 27 28 23 18 26 19 16 19 20 23 23 27 23 21 27 27 28 27 28 28 27 26 25 24 23 21 20 20 19 19 20 28 32 32 32 32 32 32 32 32 32 33 34
54 54 54 53 53 53 53 53 53 53 54 54 55 55 56 56 57 57 57 57 57 57 57 58 58 58 57 46 34 25 22 44 45 52 59 46 43 41 47 37 36 33 31 31 31 29 28 25 25 24 17 20 20 20 21 20 21 23 23 25 24 22 22 22 22 22 22 21 21 20 20 20 20 19 17 20 29 32 32 31 31 32 31 32 32 32 32 33
54 54 54 54 54 54 54 54 54 53 53 54 54 55 56 57 57 57 57 57 57 57 57 58 58 57 48 44 38 19 35 43 57 59 55 44 39 38 37 41 34 31 29 30 29 29 26 27 26 25 24 21 21 20 23 22 21 24 23 23 22 22 22 24 21 22 21 22 21 20 20 19 20 20 17 21 26 31 30 30 31 31 31 31 32 32 32 33
54 55 55 54 54 54 54 53 53 54 54 54 55 55 56 57 57 57 57 57 57 56 57 57 56 52 45 34 28 22 49 52 55 55 46 40 37 35 38 37 35 31 30 34 30 30 29 28 33 27 28 20 22 22 22 22 23 22 22 21 22 22 22 22 21 21 20 20 21 20 19 19 19 21 17 26 29 30 29 30 30 31 31 31 31 32 34 32
54 54 55 56 56 54 54 54 54 53 54 54 54 55 56 56 57 57 57 57 56 56 57 57 55 48 33 31 28 31 44 46 53 47 44 43 44 47 45 38 36 40 32 28 34 39 37 32 32 22 22 24 21 23 23 23 23 22 22 22 23 23 23 21 20 20 21 19 20 20 19 18 19 17 22 24 31 30 29 29 30 30 30 31 32 31 32 32
55 55 55 57 57 57 55 54 54 53 54 55 55 55 56 57 57 57 57 56 56 56 57 58 56 51 36 28 30 37 39 53 46 43 42 45 42 41 40 42 39 35 37 30 33 41 38 34 29 24 27 24 24 23 24 24 23 22 21 22 22 22 22 21 22 21 22 19 20 21 20 19 18 21 27 29 28 30 29 29 29 29 29 30 31 31 32 32
56 57 57 58 58 57 55 55 54 54 54 55 55 56 56 57 57 57 57 56 57 57 57 56 55 49 31 28 30 35 46 52 43 41 42 43 39 42 38 39 38 35 43 39 41 38 34 33 31 27 30 25 23 28 23 23 23 23 22 22 24 23 21 21 23 23 21 20 20 21 22 19 19 21 30 30 26 27 28 29 29 29 29 29 31 31 31 31
56 57 56 58 58 57 56 54 54 53 54 54 55 56 57 57 57 56 56 57 56 58 57 56 51 38 31 30 33 47 56 50 41 45 48 41 37 38 35 35 35 35 35 38 39 38 35 38 31 26 25 26 26 24 24 24 22 22 22 24 26 23 23 21 25 23 21 18 20 21 23 20 18 21 30 30 30 27 28 28 28 29 29 29 29 29 30 31
56 55 55 57 58 57 57 57 55 53 53 54 56 57 58 57 57 56 57 57 57 57 57 53 44 36 29 30 37 55 45 41 45 47 44 45 46 38 40 34 34 33 33 32 33 32 33 32 28 27 25 26 25 24 24 26 26 23 23 27 27 25 24 21 23 23 23 18 20 21 20 19 17 24 30 30 29 28 28 28 29 28 28 28 28 29 29 31
57 56 55 57 58 57 57 57 56 54 54 55 56 57 58 58 57 56 57 56 55 55 55 39 45 39 30 35 37 35 36 42 43 45 43 41 42 37 35 35 32 31 33 32 35 36 31 29 29 30 26 25 25 27 25 27 26 26 26 23 30 22 21 21 22 23 28 20 20 21 20 20 19 26 29 29 30 28 27 28 28 28 28 28 29 28 28 29
57 57 57 58 58 57 57 56 54 53 54 56 57 58 56 57 57 57 55 55 56 52 51 46 42 40 35 34 30 30 43 40 45 40 42 36 39 34 34 31 32 32 32 30 32 29 30 28 29 27 27 26 25 26 25 22 26 27 25 26 22 21 21 21 22 22 22 22 21 21 20 21 21 27 28 29 29 28 28 28 27 27 27 28 28 28 28 29
58 58 58 57 58 57 57 56 55 54 55 56 58 57 57 56 53 52 49 48 41 38 35 35 34 31 28 31 37 40 43 43 43 43 39 37 36 33 34 34 35 31 32 28 29 29 30 31 32 29 27 25 24 24 25 26 25 23 24 23 23 23 23 21 21 22 22 21 21 21 22 22 23 26 28 28 29 28 28 28 28 27 27 27 27 28 28 29
58 58 57 56 57 58 56 56 55 55 55 56 56 55 50 46 46 42 45 46 41 35 34 35 35 33 33 33 37 39 41 44 39 40 41 38 35 33 31 31 38 32 29 29 31 29 34 29 27 29 27 26 25 25 25 25 25 24 28 27 22 23 24 24 24 24 24 23 22 22 23 23 23 26 28 28 29 29 28 28 28 27 27 28 27 28 28 28
58 58 58 57 58 58 56 56 55 56 56 57 55 50 39 37 36 32 41 43 44 44 38 36 36 33 31 38 42 37 34 35 37 39 39 39 33 33 30 31 31 30 30 31 32 27 28 29 29 28 27 26 25 25 25 24 24 24 25 25 23 27 24 24 22 24 24 23 23 23 23 24 24 27 28 29 28 28 27 28 27 26 26 27 28 28 28 27
58 58 58 58 58 58 56 56 56 56 57 57 55 50 48 46 43 43 39 34 43 44 45 42 40 36 37 36 40 40 39 33 36 39 39 37 32 31 29 29 28 27 31 31 28 28 28 27 27 27 25 25 24 24 24 24 25 25 23 25 25 24 26 23 24 25 25 23 23 23 23 24 24 27 28 28 28 29 29 29 27 26 27 27 27 27 28 28
57 58 58 58 58 57 57 56 56 56 56 54 53 52 52 52 47 47 44 40 39 45 43 42 40 38 37 40 38 37 33 31 31 38 38 38 32 31 29 28 27 28 28 26 27 30 28 28 27 25 25 24 23 23 23 24 25 25 24 24 24 29 27 28 25 25 24 23 24 25 24 25 26 27 28 28 27 28 28 27 28 28 26 26 25 26 27 27
57 57 58 58 58 57 57 56 56 56 55 54 53 53 52 48 48 45 45 39 37 41 41 42 40 40 38 35 38 36 32 32 32 35 39 33 31 33 29 27 26 27 25 25 25 28 26 28 26 25 26 24 23 22 23 23 23 28 28 26 26 28 25 26 26 25 25 25 26 24 26 25 26 25 26 27 27 26 26 26 26 27 28 28 29 28 27 25
57 57 58 58 57 57 57 57 55 54 55 55 54 54 55 54 53 50 42 37 40 41 45 44 45 44 41 42 39 34 34 35 35 37 39 33 30 28 27 29 27 26 26 26 26 28 27 28 29 25 27 25 28 23 26 29 25 27 30 27 26 26 25 25 27 24 25 26 24 25 25 25 26 25 25 27 27 26 26 26 25 25 26 26 25 26 26 28
57 57 58 58 57 57 58 53 53 53 53 52 53 55 56 56 55 52 40 37 33 38 39 36 44 38 45 37 40 37 35 32 37 39 38 35 37 29 28 27 28 26 26 27 25 28 27 29 31 29 29 31 30 27 30 29 29 29 29 28 25 25 27 29 27 27 25 25 26 24 24 22 24 23 25 26 26 26 26 27 25 25 24 25 26 26 25 25
58 57 58 58 57 57 53 50 54 54 50 51 53 55 55 56 50 51 33 33 31 38 34 41 40 40 44 38 37 37 30 33 36 38 36 41 33 36 28 27 29 29 28 30 30 27 30 28 30 34 31 32 31 27 31 27 30 29 34 31 29 28 28 29 28 28 26 28 29 24 26 22 21 25 26 27 26 25 26 25 26 25 24 24 24 24 25 25
58 58 58 58 58 56 54 54 53 51 51 52 51 55 52 51 49 47 35 27 27 41 37 37 38 42 41 35 41 34 33 35 34 35 34 36 35 32 32 29 28 29 28 31 28 34 29 31 33 32 33 32 29 30 34 30 30 31 31 32 30 27 30 31 28 26 26 24 23 24 29 21 21 25 26 26 25 25 25 25 25 25 24 24 24 24 25 24
58 58 57 58 58 57 57 55 53 51 54 50 50 52 51 47 45 37 40 27 38 33 43 35 42 36 36 37 34 33 33 31 34 32 36 34 35 32 30 31 30 29 29 32 30 36 30 34 32 33 32 29 31 29 31 32 30 32 31 31 30 31 31 29 26 26 24 23 24 24 26 21 21 25 24 26 25 25 26 25 25 25 24 25 24 24 24 23
58 58 58 58 57 56 56 57 56 56 51 49 48 48 47 45 41 36 31 27 42 33 38 35 34 36 36 35 36 31 31 31 31 32 32 33 31 33 30 33 30 30 32 30 33 33 28 30 34 32 31 33 29 29 32 31 32 31 32 29 28 27 26 25 24 23 24 22 24 27 26 22 21 26 23 26 26 25 26 25 25 25 25 24 24 24 24 23
58 58 57 57 55 55 55 52 55 51 50 48 47 46 45 47 40 34 28 30 38 36 34 33 31 36 36 35 35 35 30 30 32 32 31 30 30 30 29 31 32 33 31 31 31 33 28 28 32 33 30 30 30 31 31 31 32 33 28 27 27 27 24 25 25 24 23 22 22 22 25 25 21 22 26 25 25 25 25 25 25 24 24 24 24 24 23 22
58 58 58 57 57 56 53 52 54 51 49 48 47 47 47 37 41 30 29 34 29 33 34 33 32 37 36 35 38 31 32 29 31 31 30 30 30 30 31 33 32 30 30 30 31 32 30 30 31 32 33 30 33 29 28 30 29 29 27 26 26 24 23 21 22 21 21 21 23 21 23 21 21 23 22 23 24 25 27 26 25 25 24 24 24 24 23 23
57 57 57 57 55 55 55 56 55 51 49 49 49 49 42 35 28 37 37 35 31 36 32 34 32 34 37 35 35 31 33 32 31 31 32 32 31 33 34 32 34 36 31 32 32 30 31 35 31 32 32 31 32 27 26 26 26 27 25 25 26 22 21 20 21 20 19 23 21 21 24 20 23 23 25 23 25 26 27 28 28 26 24 25 25 25 24 24
57 57 56 56 57 56 56 55 55 52 49 50 49 45 40 31 30 37 38 37 35 31 31 31 32 35 36 34 35 32 32 32 31 31 31 31 31 32 32 32 31 33 32 30 30 29 29 28 29 30 29 33 31 29 29 29 26 26 31 28 26 25 22 20 20 19 22 23 20 22 22 22 22 21 26 25 26 26 26 26 28 27 26 26 25 25 24 23
57 57 57 57 56 57 56 55 54 52 50 49 45 41 32 30 34 36 36 37 36 30 29 32 34 35 34 34 30 30 33 31 33 31 32 31 30 32 32 31 31 32 34 29 32 30 31 31 31 33 34 31 31 34 34 31 29 28 31 29 26 25 25 21 20 21 20 18 20 22 21 22 22 26 28 26 25 25 25 26 27 27 26 26 25 24 23 22
56 56 57 54 54 56 56 55 54 53 50 47 42 36 33 35 33 40 36 37 33 33 29 31 34 33 32 34 30 32 34 31 31 32 32 32 33 32 35 34 32 31 31 30 30 28 26 26 31 32 29 29 31 33 30 33 25 27 27 25 27 29 25 21 20 21 21 21 20 24 20 23 22 24 25 26 24 24 24 25 26 26 25 25 25 25 23 22
53 55 52 54 54 56 56 55 54 53 49 45 40 33 38 38 44 40 40 36 34 30 32 29 30 30 31 31 31 30 32 32 32 32 30 32 30 32 32 34 35 32 30 33 28 32 28 27 30 30 28 29 31 31 33 33 32 27 26 27 31 32 31 24 21 20 20 20 21 22 22 20 20 20 25 24 24 23 24 24 25 27 26 24 25 25 24 23
53 53 53 53 54 56 56 54 53 52 47 44 37 38 42 38 45 38 37 33 29 33 31 31 33 33 31 31 30 29 33 31 29 32 30 30 30 34 33 32 33 32 30 31 29 32 30 25 29 30 31 32 32 33 28 31 33 28 28 37 26 23 23 21 23 20 19 19 20 20 20 20 21 23 23 24 24 24 23 24 25 26 25 24 25 25 24 23
53 52 48 52 55 56 55 54 53 49 44 40 38 36 41 40 47 42 36 35 35 34 32 33 32 34 32 30 31 30 31 29 30 30 29 30 28 32 31 33 33 32 31 29 28 29 32 26 26 33 31 31 30 29 25 26 30 31 30 27 31 25 27 23 23 23 22 20 19 20 20 19 24 21 22 22 24 25 24 24 24 26 26 25 25 25 24 23
51 47 47 54 56 56 55 53 49 46 42 35 38 39 46 40 44 46 43 35 37 33 34 35 38 34 33 33 32 29 32 32 29 30 30 32 29 31 30 32 32 33 30 30 32 35 26 29 23 29 32 29 25 27 26 26 25 24 25 24 26 28 28 25 23 24 21 20 18 19 19 22 24 23 24 23 23 25 24 24 26 26 26 26 25 27 25 24
51 47 47 54 55 56 54 51 45 41 40 41 41 40 42 39 44 45 44 44 45 45 41 41 37 33 34 33 29 33 32 31 30 29 31 32 28 28 32 31 33 32 32 31 31 32 28 26 24 28 26 25 27 33 33 31 28 26 26 25 25 26 23 22 22 22 23 21 20 18 20 24 25 24 24 24 25 27 27 27 27 27 26 26 27 26 26 25
48 41 46 54 55 54 50 42 42 44 41 38 37 41 40 45 42 44 44 45 44 45 44 43 42 41 39 32 34 33 33 32 31 31 32 30 30 29 34 31 30 32 31 29 29 35 32 30 29 27 27 27 31 32 33 32 33 32 28 27 29 27 25 24 22 23 23 23 24 20 19 21 28 28 27 26 26 25 27 27 28 27 28 27 27 27 26 25
46 45 48 51 55 52 47 41 42 41 38 40 42 41 43 43 42 44 44 44 42 44 42 42 41 40 41 37 37 35 34 32 33 30 32 32 32 31 38 33 34 33 33 31 32 32 34 29 26 29 30 31 32 32 34 34 32 29 30 32 30 26 27 25 26 27 23 25 21 21 20 24 25 28 28 27 27 27 26 26 27 27 27 27 27 27 26 25
45 44 46 50 52 52 45 36 35 36 38 40 40 39 42 42 42 41 41 43 43 42 42 41 42 43 40 41 38 35 34 30 35 32 32 36 34 37 38 36 34 32 31 30 29 34 27 30 28 26 26 28 28 33 32 34 33 30 27 29 30 31 31 30 30 28 23 25 25 22 20 24 26 29 29 26 25 25 25 25 26 27 28 27 26 26 26 25
44 44 45 47 49 48 42 42 39 37 37 38 38 38 39 41 43 42 42 42 44 42 42 41 42 43 40 40 38 37 38 35 33 36 37 35 34 36 36 36 36 32 40 43 39 34 30 30 27 24 23 23 23 23 25 28 29 31 31 32 31 31 29 26 24 25 23 28 27 23 22 29 28 28 26 26 26 27 25 25 24 26 27 26 26 26 25 25
41 36 42 43 46 44 44 44 43 40 38 38 38 38 39 40 42 44 43 42 43 43 43 41 41 42 38 38 37 37 37 39 37 34 35 35 36 36 34 35 36 36 39 40 39 33 29 36 30 28 26 25 27 30 34 34 31 29 31 31 30 32 31 29 28 25 23 26 24 26 26 26 26 25 26 26 26 25 25 25 25 25 25 26 26 26 26 25
42 38 37 35 43 42 40 43 42 42 38 40 35 38 37 39 41 41 44 41 43 42 42 42 41 40 38 39 38 38 40 37 35 36 35 35 34 35 34 35 35 37 38 37 37 34 33 29 32 31 31 31 35 34 34 32 29 30 30 30 31 29 30 29 27 24 31 27 24 28 29 27 27 27 27 27 28 26 26 26 25 25 26 26 26 26 28 24
39 38 41 42 38 35 37 38 42 42 41 41 38 40 38 38 39 38 42 43 44 44 40 39 40 41 40 39 38 35 36 36 36 35 34 34 34 34 34 35 35 35 37 38 37 35 33 29 32 33 30 34 34 33 34 32 32 31 30 31 30 30 30 28 28 28 29 26 25 28 30 28 28 29 29 28 28 27 27 26 26 26 26 25 25 25 24 24
41 39 39 42 37 37 39 41 41 41 39 40 35 38 37 38 38 39 40 39 41 40 42 36 38 40 41 41 40 35 36 33 33 35 34 33 34 33 33 35 36 35 35 35 35 34 34 32 32 33 31 32 32 33 33 32 31 31 32 32 32 30 29 29 28 30 30 28 29 29 30 30 30 32 31 29 30 29 28 30 28 27 27 26 25 24 24 24
36 38 35 39 38 37 38 40 40 38 34 37 33 33 35 37 37 39 39 39 35 38 40 39 37 39 39 39 39 36 36 37 35 34 35 34 33 34 33 34 33 34 34 34 35 35 36 32 34 33 32 31 29 29 31 32 30 30 31 32 32 31 30 31 30 31 31 30 31 29 29 28 31 31 32 29 29 28 27 26 27 27 27 26 25 25 25 25
39 38 40 37 33 33 35 36 36 35 33 33 33 34 34 35 36 38 37 39 37 36 38 38 38 36 35 36 36 36 36 35 35 35 35 35 33 35 34 33 36 33 33 33 34 33 34 33 32 32 31 30 26 30 29 29 29 29 30 30 30 30 29 30 30 30 30 29 29 29 29 29 31 31 30 28 28 28 28 27 26 27 26 26 26 26 26 26
39 39 40 40 32 36 33 34 33 34 32 35 35 35 34 34 37 37 33 38 38 39 39 38 37 36 33 34 34 36 38 37 37 38 38 39 39 36 37 36 36 33 33 33 33 33 33 31 30 31 30 29 23 28 27 28 29 28 29 28 30 30 30 30 31 31 31 31 30 29 29 31 31 29 28 27 26 27 27 27 28 28 27 26 26 26 27 27